Tracking 18987 objects as of 17-Feb-2018
HD Live streaming from Space Station
objects crossing your sky now

NOAA 16 DEB

Track NOAA 16 DEB now!
10-day predictions


NORAD ID: 41055
Int'l Code: 2000-055N
Perigee: 831.6 km
Apogee: 857.4 km
Inclination: 98.9 °
Period: 101.7 minutes
Semi major axis: 7215 km
RCS: Unknown
Launch date: September 21, 2000
Source: United States (US)
Launch site: AIR FORCE WESTERN TEST RANGE (AFWTR)

Note: This is SATELLITE DEBRIS
aabbcc
Your satellite tracking list
Your tracking list is empty




NASA's NSSDC Master Catalog

Two Line Element Set (TLE):
1 41055U 00055N   18047.79411011 +.00000653 +00000-0 +35032-3 0  9999
2 41055 098.8563 126.7931 0017918 331.5076 028.5117 14.16458234115241
Source of the keplerian elements: AFSPC